Tampa Macdill AFB, FL

10:30 AM EDT on March 26, 2017 (GMT -0400)
MacDill Air Force Base

Weather History for KMCF - February, 2013

Change the Weather History Date:

Wednesday, February 6, 2013

  Actual Average Record
Temperature  
Mean Temperature 68 °F -  
Max Temperature 79 °F 68 °F 85 °F (2012)
Min Temperature 57 °F 50 °F 30 °F (2009)
Cooling Degree Days 3    
Growing Degree Days 18 (Base 50)    
Moisture  
Dew Point 59 °F    
Average Humidity 77    
Maximum Humidity 96    
Minimum Humidity 50    
Precipitation  
Precipitation 0.00 in - - ()
Sea Level Pressure  
Sea Level Pressure 30.08 in    
Wind  
Wind Speed 5 mph (SSE)    
Max Wind Speed 8 mph    
Max Gust Speed -    
Visibility 10 miles    
Events      
Averages and records for this station are not official NWS values.
T = Trace of Precipitation, MM = Missing Value Source: NWS Daily Summary

Daily Weather History Graph

Daily Weather History Graph

Search for Another Location

Airport or City:

Trip Planner

Search our weather history database for the weather conditions in past years. The results will help you decide how hot, cold, wet, or windy it might be!

Date:

Astronomy

Feb. 06, 2013 Rise Set
Actual Time 7:13 AM EST 6:14 PM EST
Civil Twilight 6:49 AM EST 6:39 PM EST
Nautical Twilight 6:21 AM EST 7:06 PM EST
Astronomical Twilight 5:54 AM EST 7:34 PM EST
Moon 3:46 AM EST (2/6) 2:41 PM EST (2/6)
Length of Visible Light 11h 49m
Length of Day
11h 00m
Waning Crescent, 17% of the Moon is Illuminated
Feb 6
Waning Crescent
Feb 10
New
Feb 17
First Quarter
Feb 25
Full
Mar 4
Last Quarter

Hourly Weather History & Observations

Time (EST) Temp. Dew Point Humidity Pressure Visibility Wind Dir Wind Speed Gust Speed Precip Events Conditions
12:58 AM 57.7 °F 55.9 °F 94% 30.06 in 10.0 mi SSE 3.5 mph - N/A   Scattered Clouds
1:58 AM 57.4 °F 55.0 °F 92% 30.06 in 10.0 mi SSE 4.6 mph - N/A   Scattered Clouds
2:58 AM 57.7 °F 56.5 °F 96% 30.05 in 10.0 mi SE 3.5 mph - N/A   Overcast
3:58 AM 57.0 °F 55.8 °F 96% 30.05 in 10.0 mi SE 2.3 mph - N/A   Mostly Cloudy
4:58 AM 57.4 °F 55.8 °F 94% 30.05 in 10.0 mi SSE 3.5 mph - N/A   Scattered Clouds
5:58 AM 58.6 °F 56.7 °F 93% 30.06 in 10.0 mi South 4.6 mph - N/A   Mostly Cloudy
6:58 AM 59.0 °F 56.7 °F 92% 30.07 in 10.0 mi South 5.8 mph - N/A   Mostly Cloudy
7:58 AM 61.0 °F 57.2 °F 87% 30.09 in 10.0 mi South 4.6 mph - N/A   Mostly Cloudy
8:58 AM 64.0 °F 56.8 °F 77% 30.12 in 10.0 mi SSE 5.8 mph - N/A   Overcast
9:58 AM 68.7 °F 56.3 °F 64% 30.13 in 10.0 mi South 8.1 mph - N/A   Scattered Clouds
10:58 AM 72.5 °F 57.4 °F 59% 30.13 in 10.0 mi South 8.1 mph - N/A   Clear
11:58 AM 75.6 °F 58.8 °F 56% 30.12 in 10.0 mi SSE 5.8 mph - N/A   Overcast
12:58 PM 77.2 °F 59.2 °F 54% 30.10 in 10.0 mi SW 5.8 mph - N/A   Overcast
1:58 PM 79.2 °F 59.2 °F 50% 30.08 in 10.0 mi Variable 4.6 mph - N/A   Overcast
2:58 PM 77.2 °F 60.1 °F 55% 30.07 in 10.0 mi WNW 8.1 mph - N/A   Overcast
3:58 PM 76.3 °F 62.1 °F 61% 30.06 in 10.0 mi West 6.9 mph - N/A   Mostly Cloudy
4:58 PM 77.0 °F 63.0 °F 62% 30.06 in 10.0 mi NW 5.8 mph - N/A   Partly Cloudy
5:58 PM 74.3 °F 61.7 °F 65% 30.06 in 10.0 mi Calm Calm - N/A   Mostly Cloudy
6:58 PM 67.1 °F 57.4 °F 71% 30.07 in 10.0 mi Calm Calm - N/A   Clear
7:58 PM 63.0 °F 55.8 °F 77% 30.08 in 10.0 mi NNE 3.5 mph - N/A   Mostly Cloudy
8:58 PM 66.6 °F 62.6 °F 87% 30.09 in 10.0 mi NE 4.6 mph - N/A   Mostly Cloudy
9:58 PM 66.2 °F 62.6 °F 88% 30.09 in 10.0 mi ENE 3.5 mph - N/A   Mostly Cloudy
10:58 PM 65.8 °F 61.3 °F 85% 30.09 in 10.0 mi ESE 4.6 mph - N/A   Scattered Clouds
11:58 PM 62.6 °F 61.0 °F 94% 30.08 in 10.0 mi SSE 8.1 mph - N/A   Clear